Tracking 30923 objects as of 1-Jul-2025
HD Live streaming from Space Station
objects crossing your sky now

QIANFAN-53

Track QIANFAN-53 now!
10-day predictions


NORAD ID: 62254
Int'l Code: 2024-232T
Perigee: 1,066.1 km
Apogee: 1,085.7 km
Inclination: 89.0 °
Period: 106.6 minutes
Semi major axis: 7446 km
RCS: Unknown
Launch date: December 5, 2024
Source: People's Republic of China (PRC)
Launch site: Taiyaun Space Center, China (TSC)
Your satellite tracking list
KOSEN-1
Track 1 satellite(s)




NASA's NSSDC Master Catalog

Two Line Element Set (TLE):
1 62254U 24232T   25181.54355361  .00000088  00000-0  11753-3 0  9997
2 62254  88.9959  57.9293 0013129 318.3083  41.7067 13.50949432 45606
Source of the keplerian elements: AFSPC